Location: Newark
(44.9333°N, 0.5667°E)
Time: 06:46:22
(UTC+00:00)

N. Korean satellite - Pass Details

Date: 23 December 2019
Orbit: 454 x 508 km, 97.2° (Epoch: 20 January)

Event Time Altitude Azimuth Distance (km) Brightness Sun altitude
Rises 17:54:14 0° 204° (SSW) 2,575 10.9 -15.9°
Reaches altitude 10° 17:56:52 10° 224° (SW) 1,689 10.3 -16.3°
Maximum altitude 17:59:19 17° 267° (W) 1,298 9.7 -16.7°
Drops below altitude 10° 18:01:47 10° 310° (NW) 1,679 9.7 -17.2°
Sets 18:04:24 0° 331° (NNW) 2,553 10.4 -17.6°
